Date_and_time,latitude,longitude,wind_speed,RelWindDirFrom,WindDirFrom,air_pressure,air_temperature,relative_humidity,Temp,platform_speed_wrt_ground,air_pressure_at_mean_sea_level,platform_orientation
2019-01-29 23:40,50.63045,-96.9807633333333,7.5,11.8,318,1000.88,-32.7,50,0.37,0.0,1032.91,270.0
2019-01-29 23:50,50.6304483333333,-96.980765,6.9,11.7,321,1001.01,-32.8,51,0.37,0.0,1033.04,270.0
2019-01-30 00:00,50.6304566666667,-96.9807833333333,6.8,11.0,320,1001.07,-32.9,51,0.38,0.0,1033.12,323.4
2019-01-30 00:10,50.6304533333333,-96.9807683333333,7.5,11.0,318,1001.07,-33.0,52,0.38,0.0,1033.13,323.4
2019-01-30 00:20,50.6304533333333,-96.9807616666667,7.4,10.4,324,1001.02,-33.1,52,0.35,0.0,1033.10,323.4
2019-01-30 00:30,50.630455,-96.9807566666667,7.3,11.0,320,1001.03,-33.2,52,0.33,0.0,1033.12,323.4
2019-01-30 00:40,50.630455,-96.9807583333333,7.6,10.7,317,1001.02,-33.2,51,0.34,0.0,1033.13,323.4
2019-01-30 00:50,50.630455,-96.98076,7.5,11.4,320,1001.09,-33.3,52,0.34,0.0,1033.22,323.4
2019-01-30 01:00,50.630455,-96.98076,6.8,9.8,324,1001.17,-33.4,52,0.33,0.0,1033.32,90.0
2019-01-30 01:10,50.630455,-96.980775,5.9,9.5,326,1001.30,-33.5,51,0.34,0.0,1033.48,90.0
2019-01-30 01:20,50.6304566666667,-96.98077,5.4,7.8,326,1001.42,-33.7,51,0.34,0.0,1033.61,90.0
2019-01-30 01:30,50.630455,-96.980765,4.5,6.2,325,1001.44,-33.8,52,0.35,0.0,1033.65,90.0
2019-01-30 01:40,50.6304483333333,-96.98077,5.2,7.6,334,1001.39,-33.9,52,0.36,0.0,1033.62,90.0
2019-01-30 01:50,50.6304516666667,-96.9807683333333,5.2,7.0,337,1001.35,-33.9,52,0.36,0.0,1033.59,90.0
2019-01-30 02:00,50.6304583333333,-96.9807733333333,4.4,5.7,327,1001.42,-34.0,53,0.37,0.0,1033.68,38.0
2019-01-30 02:10,50.630455,-96.9807683333333,4.2,5.6,315,1001.48,-34.2,53,0.37,0.0,1033.75,38.0
2019-01-30 02:20,50.6304516666667,-96.9807666666667,4.9,6.5,306,1001.49,-34.3,53,0.37,0.0,1033.78,38.0
2019-01-30 02:30,50.6304516666667,-96.9807716666667,4.4,5.7,304,1001.44,-34.4,55,0.37,0.0,1033.73,38.0
2019-01-30 02:40,50.6304533333333,-96.9807733333333,3.9,5.1,309,1001.40,-34.5,56,0.37,0.0,1033.71,38.0
2019-01-30 02:50,50.630455,-96.980775,4.6,7.0,314,1001.36,-34.7,56,0.37,0.0,1033.69,38.0
2019-01-30 03:00,50.630455,-96.9807733333333,4.6,6.6,310,1001.33,-34.7,56,0.37,0.0,1033.67,90.0
2019-01-30 03:10,50.630455,-96.9807733333333,4.4,6.9,307,1001.38,-34.7,57,0.37,0.0,1033.73,90.0
2019-01-30 03:20,50.6304866666667,-96.9808116666667,4.5,5.9,302,1001.43,-34.8,57,0.37,0.0,1033.79,90.0
2019-01-30 03:30,50.6304666666667,-96.98078,4.1,6.2,296,1001.42,-35.0,57,0.37,0.0,1033.80,90.0
2019-01-30 03:40,50.6304633333333,-96.9807733333333,3.9,5.6,298,1001.34,-35.2,58,0.37,0.0,1033.74,90.0
2019-01-30 03:50,50.630475,-96.9807966666667,4.5,5.9,304,1001.23,-35.2,59,0.37,0.0,1033.63,90.0
2019-01-30 04:00,50.6304533333333,-96.9807583333333,4.5,6.3,303,1001.16,-35.2,59,0.36,0.0,1033.57,0.0
2019-01-30 04:10,50.630455,-96.980755,4.6,5.8,287,1001.12,-35.4,59,0.36,0.0,1033.54,0.0
2019-01-30 04:20,50.630455,-96.98076,4.4,6.6,278,1001.11,-35.6,59,0.36,0.0,1033.55,0.0
2019-01-30 04:30,50.630455,-96.9807616666667,5.3,7.0,279,1000.98,-35.8,59,0.36,0.0,1033.46,0.0
2019-01-30 04:40,50.6304533333333,-96.9807616666667,5.8,8.0,283,1000.89,-35.9,60,0.36,0.0,1033.38,0.0
2019-01-30 04:50,50.630455,-96.980765,5.4,8.1,277,1000.84,-36.0,60,0.36,0.0,1033.33,0.0
2019-01-30 05:00,50.630455,-96.980765,5.7,7.3,282,1000.77,-36.1,60,0.36,0.0,1033.26,167.4
2019-01-30 05:10,50.630455,-96.980765,5.8,7.9,282,1000.75,-36.2,60,0.36,0.0,1033.26,167.4
2019-01-30 05:20,50.6304566666667,-96.9807666666667,5.6,7.6,281,1000.70,-36.2,60,0.36,0.0,1033.23,167.4
2019-01-30 05:30,50.6304566666667,-96.98077,5.7,7.3,285,1000.66,-36.4,60,0.36,0.0,1033.20,167.4
2019-01-30 05:40,50.63047,-96.9807616666667,5.4,8.3,285,1000.68,-36.4,60,0.36,0.0,1033.23,167.4
2019-01-30 05:50,50.630465,-96.980765,5.8,8.0,285,1000.70,-36.5,60,0.36,0.0,1033.25,167.4
2019-01-30 06:00,50.6304666666667,-96.9807616666667,5.7,7.8,289,1000.71,-36.5,60,0.36,0.0,1033.28,3.2
2019-01-30 06:10,50.6304666666667,-96.9807616666667,6.2,7.9,285,1000.66,-36.5,60,0.36,0.0,1033.24,3.2
2019-01-30 06:20,50.6304633333333,-96.98076,5.2,7.7,288,1000.73,-36.6,60,0.36,0.0,1033.33,3.2
2019-01-30 06:30,50.6304533333333,-96.9807633333333,5.1,7.5,284,1000.67,-36.6,60,0.35,0.0,1033.29,3.2
2019-01-30 06:40,50.6304683333333,-96.9807766666667,4.3,7.0,292,1000.58,-36.7,61,0.35,0.0,1033.20,3.2
2019-01-30 06:50,50.63046,-96.9807733333333,5.5,7.0,283,1000.47,-36.7,61,0.35,0.0,1033.10,3.2
2019-01-30 07:00,50.6304566666667,-96.9807733333333,5.8,7.3,289,1000.35,-36.7,60,0.35,0.0,1032.97,270.0
2019-01-30 07:10,50.63046,-96.9807716666667,6.1,8.0,285,1000.28,-36.8,60,0.35,0.0,1032.91,270.0
2019-01-30 07:20,50.6304583333333,-96.9807716666667,6.0,8.0,281,1000.29,-37.0,60,0.35,0.0,1032.94,270.0
2019-01-30 07:30,50.6304383333333,-96.9807616666667,5.0,7.4,281,1000.27,-37.1,60,0.35,0.0,1032.94,270.0
2019-01-30 07:40,50.630445,-96.9807683333333,5.0,6.9,273,1000.29,-37.3,60,0.35,0.0,1032.97,270.0
2019-01-30 07:50,50.6304566666667,-96.9807783333333,5.4,7.7,276,1000.27,-37.3,60,0.34,0.0,1032.96,270.0
2019-01-30 08:00,50.630455,-96.9807766666667,5.2,7.5,276,1000.23,-37.4,60,0.34,0.0,1032.92,270.0
2019-01-30 08:10,50.6304683333333,-96.980775,5.3,7.8,271,1000.20,-37.4,60,0.34,0.0,1032.90,270.0
2019-01-30 08:20,50.6304533333333,-96.9807683333333,5.7,7.2,271,1000.21,-37.5,60,0.34,0.0,1032.91,270.0
2019-01-30 08:30,50.6304516666667,-96.9807666666667,6.3,8.3,272,1000.15,-37.5,60,0.34,0.0,1032.86,270.0
2019-01-30 08:40,50.6304533333333,-96.980765,5.9,8.0,272,1000.22,-37.6,60,0.34,0.0,1032.94,270.0
2019-01-30 08:50,50.6304533333333,-96.9807666666667,5.4,7.8,278,1000.12,-37.7,59,0.34,0.0,1032.85,270.0
2019-01-30 09:00,50.6304533333333,-96.9807666666667,5.7,7.5,283,999.97,-37.7,59,0.34,0.0,1032.69,360.0
2019-01-30 09:10,50.6304583333333,-96.9807666666667,5.9,8.1,282,999.93,-37.8,59,0.34,0.0,1032.68,360.0
2019-01-30 09:20,50.6304566666667,-96.9807666666667,5.5,8.0,277,1000.01,-37.9,59,0.34,0.0,1032.77,360.0
2019-01-30 09:30,50.630455,-96.9807633333333,5.8,8.0,277,1000.02,-38.0,59,0.34,0.0,1032.80,360.0
2019-01-30 09:40,50.6304583333333,-96.9807583333333,4.8,7.3,281,999.94,-37.9,59,0.34,0.0,1032.72,360.0
2019-01-30 09:50,50.6304566666667,-96.9807583333333,5.2,7.2,277,999.96,-37.9,59,0.34,0.0,1032.74,360.0
2019-01-30 10:00,50.630455,-96.98076,5.2,7.1,277,999.86,-38.0,59,0.34,0.0,1032.65,90.0
2019-01-30 10:10,50.630455,-96.98076,5.5,7.3,279,999.77,-38.0,59,0.34,0.0,1032.56,90.0
2019-01-30 10:20,50.630455,-96.9807616666667,5.7,7.4,284,999.64,-37.9,59,0.34,0.0,1032.42,90.0
2019-01-30 10:30,50.630455,-96.980765,5.2,6.8,283,999.58,-37.9,59,0.34,0.0,1032.37,90.0
2019-01-30 10:40,50.6304566666667,-96.980765,4.5,6.5,281,999.51,-37.9,59,0.34,0.0,1032.29,90.0
2019-01-30 10:50,50.6304716666667,-96.9807566666667,4.7,6.6,282,999.36,-37.9,59,0.34,0.0,1032.14,90.0
2019-01-30 11:00,50.6304783333333,-96.9807766666667,4.7,6.2,277,999.32,-37.9,59,0.34,0.0,1032.12,360.0
2019-01-30 11:10,50.6304466666667,-96.98078,4.8,6.7,270,999.33,-38.1,59,0.33,0.0,1032.14,360.0
2019-01-30 11:20,50.6304483333333,-96.9807716666667,5.2,6.5,268,999.28,-38.2,59,0.33,0.0,1032.10,360.0
2019-01-30 11:30,50.6304533333333,-96.9807733333333,5.5,8.1,269,999.27,-38.2,59,0.32,0.0,1032.09,360.0
2019-01-30 11:40,50.630455,-96.9807733333333,5.0,7.1,272,999.24,-38.3,59,0.32,0.0,1032.06,360.0
2019-01-30 11:50,50.6304533333333,-96.9807733333333,5.1,7.5,273,999.23,-38.3,59,0.32,0.0,1032.06,360.0
2019-01-30 12:00,50.6304516666667,-96.9807766666667,5.0,6.9,276,999.21,-38.3,59,0.32,0.0,1032.03,270.0
2019-01-30 12:10,50.63045,-96.9807666666667,5.0,6.6,275,999.17,-38.2,59,0.32,0.0,1031.99,270.0
2019-01-30 12:20,50.6304816666667,-96.9807616666667,5.3,6.9,275,999.14,-38.3,59,0.32,0.0,1031.96,270.0
2019-01-30 12:30,50.63045,-96.9807616666667,4.9,7.0,275,999.13,-38.3,59,0.30,0.0,1031.95,270.0
2019-01-30 12:40,50.6304533333333,-96.9807783333333,4.7,6.7,283,999.00,-38.1,59,0.28,0.0,1031.81,270.0
2019-01-30 12:50,50.6304516666667,-96.9807733333333,4.9,6.1,285,998.98,-38.0,59,0.28,0.0,1031.77,270.0
2019-01-30 13:00,50.6304533333333,-96.9807733333333,4.9,6.7,283,998.96,-37.9,59,0.29,0.0,1031.76,270.0
2019-01-30 13:10,50.6304583333333,-96.9807716666667,5.4,7.0,278,999.03,-38.0,59,0.28,0.0,1031.85,270.0
2019-01-30 13:20,50.6304566666667,-96.9807716666667,5.0,7.1,279,999.04,-38.1,59,0.27,0.0,1031.86,270.0
2019-01-30 13:30,50.63044,-96.980765,4.8,6.7,284,999.04,-38.0,59,0.25,0.0,1031.87,270.0
2019-01-30 13:40,50.6304566666667,-96.980765,4.4,6.4,283,999.19,-38.0,59,0.25,0.0,1032.02,270.0
2019-01-30 13:50,50.6304566666667,-96.9807683333333,4.3,5.8,288,999.15,-38.0,59,0.25,0.0,1031.98,270.0
2019-01-30 14:00,50.6304566666667,-96.9807633333333,4.4,5.7,287,999.10,-38.0,59,0.26,0.0,1031.92,360.0
2019-01-30 14:10,50.63045,-96.98077,4.2,5.8,284,999.09,-38.0,59,0.28,0.0,1031.91,360.0
2019-01-30 14:20,50.6304533333333,-96.9807683333333,3.0,5.6,286,999.10,-38.0,59,0.30,0.0,1031.92,360.0
2019-01-30 14:30,50.6304583333333,-96.98077,2.5,6.1,280,999.20,-38.1,59,0.30,0.0,1032.02,360.0
2019-01-30 14:40,50.630455,-96.9807716666667,4.3,6.1,273,999.26,-38.2,59,0.31,0.0,1032.08,360.0
2019-01-30 14:50,50.630455,-96.9807683333333,3.3,5.3,273,999.30,-38.1,59,0.31,0.0,1032.11,360.0
2019-01-30 15:00,50.630455,-96.98077,2.4,4.4,273,999.34,-37.7,59,0.31,0.0,1032.14,90.0
2019-01-30 15:10,50.630455,-96.98077,2.3,4.9,262,999.45,-37.4,58,0.32,0.0,1032.23,90.0
2019-01-30 15:20,50.630455,-96.9807683333333,3.0,6.1,267,999.45,-37.2,58,0.32,0.0,1032.21,90.0
2019-01-30 15:30,50.630455,-96.9807683333333,1.7,2.9,273,999.34,-36.7,58,0.32,0.0,1032.06,90.0
2019-01-30 15:40,50.630455,-96.9807683333333,0.8,2.7,267,999.20,-36.1,58,0.31,0.0,1031.88,90.0
2019-01-30 15:50,50.630455,-96.9807666666667,2.8,5.5,276,999.15,-35.6,57,0.31,0.0,1031.79,90.0
2019-01-30 16:00,50.6304533333333,-96.980765,3.0,4.8,272,999.09,-35.5,57,0.30,0.0,1031.72,90.0
2019-01-30 16:10,50.6304666666667,-96.98079,2.6,3.8,270,999.11,-34.9,57,0.30,0.0,1031.69,90.0
2019-01-30 16:20,50.6304733333333,-96.980755,2.9,4.2,265,999.14,-34.3,57,0.30,0.0,1031.69,90.0
2019-01-30 16:30,50.6304483333333,-96.9807666666667,2.3,3.5,258,999.13,-33.8,57,0.30,0.0,1031.65,90.0
2019-01-30 16:40,50.6304466666667,-96.9807683333333,2.2,3.7,233,999.10,-33.3,57,0.29,0.0,1031.58,90.0
2019-01-30 16:50,50.63045,-96.980765,2.4,4.2,262,999.13,-32.9,56,0.29,0.0,1031.56,90.0
2019-01-30 17:00,50.6304483333333,-96.980765,2.9,4.1,273,999.05,-32.6,57,0.29,0.0,1031.43,142.0
2019-01-30 17:10,50.63045,-96.9807666666667,1.6,3.8,272,998.97,-32.0,56,0.30,0.0,1031.29,142.0
2019-01-30 17:20,50.63045,-96.9807683333333,2.4,4.2,282,998.97,-31.2,56,0.30,0.0,1031.21,142.0
2019-01-30 17:30,50.6304516666667,-96.9807683333333,2.9,4.6,281,998.90,-31.2,56,0.31,0.0,1031.09,142.0
2019-01-30 17:40,50.63045,-96.9807683333333,2.2,5.3,274,998.83,-30.7,55,0.31,0.0,1030.95,142.0
2019-01-30 17:50,50.6304516666667,-96.9807683333333,2.4,4.6,271,998.76,-30.5,55,0.31,0.0,1030.86,142.0
2019-01-30 18:00,50.6304516666667,-96.9807683333333,3.0,4.8,258,998.63,-30.5,55,0.31,0.0,1030.68,90.0
2019-01-30 18:10,50.6304516666667,-96.9807683333333,2.4,4.0,263,998.47,-30.1,54,0.31,0.0,1030.46,90.0
2019-01-30 18:20,50.6304516666667,-96.98077,2.0,3.6,259,998.37,-29.7,54,0.32,0.0,1030.29,90.0
2019-01-30 18:30,50.6304516666667,-96.98077,2.0,5.2,51,998.31,-29.0,54,0.32,0.0,1030.14,90.0
2019-01-30 18:40,50.6304516666667,-96.98077,2.9,4.5,78,998.24,-28.5,55,0.32,0.0,1030.01,90.0
2019-01-30 18:50,50.6304516666667,-96.9807683333333,2.9,4.3,95,998.13,-27.2,53,0.31,0.0,1029.80,90.0
2019-01-30 19:00,50.6304516666667,-96.9807683333333,2.5,3.8,91,998.03,-26.6,51,0.32,0.0,1029.61,90.0
2019-01-30 19:10,50.6304516666667,-96.9807683333333,3.6,4.6,88,998.02,-26.7,51,0.33,0.0,1029.55,90.0
2019-01-30 19:20,50.6304516666667,-96.98077,3.6,4.5,96,997.96,-26.7,51,0.33,0.0,1029.50,90.0
2019-01-30 19:30,50.6304516666667,-96.98077,4.0,5.5,96,997.85,-26.8,51,0.33,0.0,1029.35,90.0
2019-01-30 19:40,50.6304516666667,-96.98077,4.3,6.2,97,997.83,-26.9,52,0.33,0.0,1029.32,90.0
2019-01-30 19:50,50.6304516666667,-96.98077,6.0,7.3,103,997.78,-28.1,54,0.31,0.0,1029.35,90.0
2019-01-30 20:00,50.6304516666667,-96.98077,5.5,6.2,99,997.70,-28.1,55,0.30,0.0,1029.25,360.0
2019-01-30 20:10,50.63046,-96.9807383333333,4.8,6.1,100,997.61,-27.9,55,0.31,0.0,1029.12,360.0
2019-01-30 20:20,50.63044,-96.9807166666667,4.7,5.8,98,997.59,-27.5,54,0.32,0.0,1029.01,360.0
2019-01-30 20:30,50.6304516666667,-96.980755,5.5,6.5,104,997.56,-28.0,55,0.31,0.0,1028.99,360.0
2019-01-30 20:40,50.6304566666667,-96.98076,5.5,6.6,101,997.51,-28.2,56,0.32,0.0,1028.87,360.0
2019-01-30 20:50,50.6304583333333,-96.98076,5.0,6.2,102,997.45,-27.8,55,0.33,0.0,1028.74,360.0
2019-01-30 21:00,50.630435,-96.98075,5.0,6.3,103,997.47,-28.0,56,0.33,0.0,1028.78,176.8
2019-01-30 21:10,50.6304483333333,-96.980755,5.4,6.4,102,997.39,-27.9,55,0.31,0.0,1028.69,176.8
2019-01-30 21:20,50.6304483333333,-96.98076,5.6,6.2,98,997.39,-27.8,56,0.32,0.0,1028.69,176.8
2019-01-30 21:30,50.6304583333333,-96.980755,5.8,6.6,96,997.39,-27.6,55,0.32,0.0,1028.69,176.8
2019-01-30 21:40,50.6304516666667,-96.9807583333333,5.5,6.5,96,997.44,-27.5,55,0.33,0.0,1028.81,176.8
2019-01-30 21:50,50.6304533333333,-96.9807616666667,5.3,6.5,98,997.48,-27.5,55,0.33,0.0,1028.85,176.8
2019-01-30 22:00,50.6304516666667,-96.9807633333333,5.3,6.0,104,997.58,-28.2,55,0.31,0.0,1028.98,0.0
2019-01-30 22:10,50.6304516666667,-96.9807616666667,5.1,5.9,105,997.65,-28.5,56,0.30,0.0,1029.05,0.0
2019-01-30 22:20,50.6304533333333,-96.9807616666667,4.4,5.1,105,997.66,-28.5,57,0.31,0.0,1029.10,0.0
2019-01-30 22:30,50.6304533333333,-96.9807616666667,4.3,5.0,99,997.68,-28.3,57,0.33,0.0,1029.11,0.0
2019-01-30 22:40,50.630455,-96.9807616666667,4.3,4.9,98,997.58,-28.0,55,0.33,0.0,1028.97,0.0
2019-01-30 22:50,50.6304433333333,-96.9807633333333,5.1,5.7,102,997.54,-28.6,57,0.33,0.0,1028.98,0.0
2019-01-30 23:00,50.6304533333333,-96.9807716666667,4.8,5.4,105,997.49,-29.1,58,0.34,0.0,1028.95,270.0
2019-01-30 23:10,50.63045,-96.9807683333333,4.7,5.6,103,997.48,-29.6,59,0.35,0.0,1028.97,270.0
2019-01-30 23:20,50.63045,-96.98077,2.5,4.3,129,997.52,-30.3,60,0.35,0.0,1029.04,270.0
2019-01-30 23:30,50.63045,-96.9807666666667,2.1,4.1,187,997.61,-31.0,59,0.36,0.0,1029.17,270.0
2019-01-30 23:40,50.6304433333333,-96.980765,2.9,3.8,181,997.58,-31.1,58,0.37,0.0,1029.14,270.0
2019-01-30 23:50,50.6304483333333,-96.9807616666667,2.2,2.9,174,997.51,-31.2,59,0.37,0.0,1029.13,270.0
